Location: Marengo
(51.4813°N, 109.7825°W)
Time: 21:50:51
(UTC+00:00)

X-37B - Pass Details

Date: 30 January 2022
Orbit: 329 x 342 km, 45.0° (Epoch: 18 May)

Event Time Altitude Azimuth Distance (km) Brightness Sun altitude
Rises 01:51:45 0° 229° (SW) 2,113 5.3 -16.7°
Reaches altitude 10° 01:54:13 10° 206° (SSW) 1,275 3.6 -17.1°
Enters shadow 01:56:01 16° 167° (SSE) 976 2.5 -17.4°
